Flag for Germany Weather past 2 weeks in Friesoythe, Lower Saxony, Germany

Now
55 °F

Sprinkles. Broken clouds.


Feels Like: 53 °F
Forecast: 42 / 61 °F
Wind: 8 mph from West

Location: Meppen-Mil

Current Time: May 28, 2015 at 2:28:46 PM

Latest Report: May 28, 2015 at 1:20 PM


Visibility: N/A

Pressure: 29.86 "Hg

Humidity: 77%

Dew point: 48 °F

Location of FriesoytheLocation

Historic Weather in Friesoythe — Graph

°F

Friesoythe temperature yesterday

Maximum temperature yesterday: 61 °F (at 4:20 PM)
Minimum temperature yesterday: 48 °F (at 12:20 AM)
Average temperature yesterday: 55 °F

Past Weeks' High & Low Weather Summary

 TemperatureHumidityPressure
High68 °F (May 22, 2:20 PM)100% (May 16, 5:20 AM)30.33 "Hg (May 16, 5:20 AM)
Low34 °F (May 16, 4:20 AM)24% (May 24, 6:20 PM)29.56 "Hg (May 19, 5:20 AM)
Average52 °F68%30.04 "Hg
* Reported May 13 1:20 PM — May 28 1:20 PM, Friesoythe, Weather by CustomWeather, © 2015

Note: Actual official high and low records may vary slightly from our data, if they occured in-between our weather recording intervals... More about our weather records

Advertising

Friesoythe weather history for previous 24 hours

 ConditionsComfort  
Time TempWeatherWind HumidityBarometerVisibility
1:20 PM
Thu, May 28
55 °FSprinkles. Broken clouds.8 mph77%29.86 "HgN/A
12:20 PM57 °FScattered showers. Scattered clouds.8 mph82%29.86 "HgN/A
11:20 AM54 °FScattered showers. Partly sunny.10 mph88%29.86 "HgN/A
10:20 AM55 °FDrizzle. Partly sunny.10 mph77%29.86 "HgN/A
9:20 AM57 °FPartly sunny.10 mph67%29.86 "HgN/A
8:20 AM57 °FPartly sunny.12 mph67%29.86 "HgN/A
7:20 AM55 °FPartly sunny.10 mph72%29.86 "HgN/A
6:20 AM55 °FPassing clouds.9 mph67%29.86 "HgN/A
5:20 AM54 °FCool.7 mph67%29.89 "Hg6 mi
4:20 AM54 °FCool.6 mph67%29.89 "Hg6 mi
3:20 AM54 °FCool.6 mph63%29.92 "HgN/A
2:20 AM55 °FRefreshingly cool.5 mph59%29.95 "Hg6 mi
1:20 AM55 °FRefreshingly cool.7 mph59%29.98 "Hg6 mi
12:20 AM55 °FRefreshingly cool.3 mph59%29.98 "HgN/A
11:20 PM
Wed, May 27
57 °FRefreshingly cool.6 mph55%30.01 "HgN/A
10:20 PM57 °FRefreshingly cool.5 mph55%30.04 "HgN/A
9:20 PM59 °FRefreshingly cool.3 mph51%30.04 "HgN/A
8:20 PM61 °FRefreshingly cool.6 mph45%30.07 "HgN/A
7:20 PM61 °FRefreshingly cool.9 mph45%30.07 "HgN/A
6:20 PM61 °FRefreshingly cool.9 mph45%30.09 "HgN/A
5:20 PM61 °FRefreshingly cool.7 mph42%30.12 "HgN/A
4:20 PM61 °FRefreshingly cool.7 mph39%30.15 "HgN/A
3:20 PM59 °FRefreshingly cool.8 mph45%30.15 "HgN/A
2:20 PM59 °FBroken clouds.8 mph48%30.18 "HgN/A
Weather by CustomWeather, © 2015

See weather overviewHow to use our weather pages